Regional Weather Roundup
Issued by NWS

Home | Current Version | Previous Version | Graphics & Text | Print | Product List | Glossary Off
Versions: 1 2 3 4 5 6 7 8 9 10 11 12 13 14 15 16 17 18 19 20 21 22 23 24 25 26 27 28 29 30 31 32 33 34 35 36 37 38 39 40 41 42 43 44 45 46 47 48 49 50

000
ASUS43 KMPX 270001
RWRMN
WEATHER ROUNDUP FOR MINNESOTA
NATIONAL WEATHER SERVICE TWIN CITIES/CHANHASSEN MN
700 PM CDT SAT MAY 26 2018


NOTE: "FAIR" INDICATES FEW OR NO CLOUDS BELOW 12,000 FEET WITH NO
SIGNIFICANT WEATHER AND/OR OBSTRUCTIONS TO VISIBILITY. N/A MEANS
CURRENT SKY AND/OR WEATHER CONDITIONS ARE NOT AVAILABLE.

MNZ060>063-068>070-270100-
   Twin Cities Metro

CITY           SKY/WX    TMP DP  RH WIND       PRES   REMARKS
TWIN CITIES    FAIR      92  53  26 W10       29.69S
6HR MIN TEMP:  90; 6HR MAX TEMP:  94;

ST PAUL        PTSUNNY   90  55  30 W14       29.68S
CRYSTAL        FAIR      92  49  22 NW6       29.68R
BLAINE         SUNNY     91  52  25 W7        29.69R
LAKEVILLE      FAIR      90  57  33 W6        29.70S
EDEN PRAIRIE   FAIR      92  53  26 NW7       29.69R
6HR MIN TEMP:  88; 6HR MAX TEMP:  94;

SOUTH ST PAUL  FAIR      91  54  28 W5        29.69R
LAKE ELMO      FAIR      88  59  37 SW7       29.70S
$$
MNZ001>005-007-008-013>017-022>024-027-028-270100-
   Northwest Minnesota

CITY           SKY/WX    TMP DP  RH WIND       PRES   REMARKS
BEMIDJI        FAIR      83  55  37 NW8       29.71S
HALLOCK        FAIR      84  55  37 N6        29.67S
ROSEAU         FAIR      81  61  50 NW7       29.69S
WARROAD        FAIR      81  63  54 NW9       29.69S
THIEF RVR FALL FAIR      84  57  39 N9        29.70R
CROOKSTON      FAIR      88  52  29 N12       29.68R
FOSSTON        FAIR      88  48  25 NW8       29.71R
DETROIT LAKES  FAIR      88  43  20 NW13G21   29.73S
MOORHEAD       FAIR      91  43  18 NW8       29.68S
PARK RAPIDS    FAIR      88  44  21 NW17G24   29.71R
MAHNOMEN       FAIR      89  47  23 NW16      29.70S
$$
MNZ006-009>011-018-025>026-270100-
   North Central Minnesota

CITY           SKY/WX    TMP DP  RH WIND       PRES   REMARKS
BAUDETTE         N/A    N/A N/A N/A MISG      29.69R
FLAG ISLAND    CLOUDY    73  59  60 CALM      29.69S
INTL FALLS     FAIR      80  56  43 NW9       29.69R
6HR MIN TEMP:  77; 6HR MAX TEMP:  82;

WASKISH        FAIR      79  63  57 CALM      29.70S
BIG FORK       FAIR      82  55  39 W7        29.71R
LONGVILLE      FAIR      84  52  32 W6        29.71R
GRAND RAPIDS   FAIR      82  57  42 NW13      29.73R
CRANE LAKE     FAIR      79  57  47 N6        29.71
ORR            FAIR      77  57  50 NW3       29.68R
COOK           PTSUNNY   81  57  44 W8        29.71R
WALKER         FAIR      83  52  33 W12       29.71R
$$
MNZ012-019>021-037-270100-
   Northeast Minnesota

CITY           SKY/WX    TMP DP  RH WIND       PRES   REMARKS
DULUTH         FAIR      86  51  29 VRB7G20   29.71R
6HR MIN TEMP:  86; 6HR MAX TEMP:  92;

ELY            FAIR      79  55  44 NW7       29.71R
HIBBING        FAIR      80  55  42 NW14      29.71R
EVELETH        FAIR      81  55  40 NW12      29.72R
DULUTH HARBOR  CLOUDY    46  45  93 NE9       29.73R
TWO HARBORS    FAIR      63  54  72 E7        29.70R
SILVER BAY     PTSUNNY   61  55  82 E8        29.71R
GRAND MARAIS     N/A     42  40  92 S3        29.73R
G MARAIS ARPRT FAIR      66  61  82 CALM      29.73R
$$
MNZ029>031-032-039>041-046>048-054>057-064-270100-
   West Central Minnesota

CITY           SKY/WX    TMP DP  RH WIND       PRES   REMARKS
FERGUS FALLS   FAIR      90  48  24 NW13      29.64S
WHEATON        SUNNY     91  43  18 W6        29.71S
MORRIS         SUNNY     93  45  18 W6        29.70S
ALEXANDRIA     FAIR      92  49  22 NW7       29.74R
ELBOW LAKE     FAIR      90  48  23 W10       29.72R
WADENA         FAIR      88  54  31 NW9       29.72R
GLENWOOD       FAIR      90  48  24 NW8       29.73S
APPLETON       SUNNY     91  45  19 W13       29.70F
BENSON         SUNNY     91  48  22 NW12      29.72S
ORTONVILLE     SUNNY     91  48  22 NW5       29.71F
MADISON        SUNNY     91  48  22 NW8       29.72S
WILLMAR          N/A     91  48  22 NW9       29.73S
$$
MNZ033>034-036-042>043-049>051-058-059-270100-
   Central Minnesota

CITY           SKY/WX    TMP DP  RH WIND       PRES   REMARKS
ST CLOUD       FAIR      91  46  21 NW8       29.69S
6HR MIN TEMP:  91; 6HR MAX TEMP:  95;

SAUK CENTRE    FAIR      91  47  22 NW9       29.72R
PAYNESVILLE    FAIR      89  51  27 W7        29.72S
AITKIN         FAIR      84  48  28 W7        29.69R
PINE RIVER     FAIR      84  50  30 NW10      29.74R
BRAINERD       FAIR      90  49  24 W9        29.71R
STAPLES        FAIR      88  45  22 NW13      29.71S
LONG PRAIRIE   FAIR      90  50  25 W9        29.72S
LITTLE FALLS   FAIR      88  52  29 NW5       29.71S
LITCHFIELD     FAIR      90  54  29 NW7       29.71R
BUFFALO        FAIR      91  47  21 W8        29.70S
MAPLE LAKE     FAIR      91  53  26 NW9       29.71R
HUTCHINSON     FAIR      91  58  32 NW6       29.72R
$$
MNZ037-044-045-052-053-270100-
   East Central Minnesota

CITY           SKY/WX    TMP DP  RH WIND       PRES   REMARKS
PRINCETON      FAIR      93  46  20 W9        29.70R
MORA           FAIR      86  48  26 NW5       29.71R
CAMBRIDGE      FAIR      93  63  36 W9        29.69S HX  94
RUSH CITY      FAIR      88  49  25 NW7       29.69S
MOOSE LAKE     FAIR      88  54  31 W6        29.67S
HINCKLEY       FAIR      88  54  31 W6        29.69S
CLOQUET        FAIR      86  43  22 NW9G17    29.70R
MCGREGOR       FAIR      86  52  30 NW9       29.71R
$$
MNZ071>073-080-081-089-090-097-098-270100-
   Southwest Minnesota

CITY           SKY/WX    TMP DP  RH WIND       PRES   REMARKS
MONTEVIDEO     SUNNY     93  45  18 N10       29.72S
CANBY          SUNNY     89  54  30 N3        29.75R
MARSHALL       SUNNY     91  49  23 N9        29.73S
REDWOOD FALLS  SUNNY     91  54  28 NW6       29.70S
OLIVIA         SUNNY     90  50  25 W10       29.71R
PIPESTONE      SUNNY     91  54  27 NW5       29.77S
WINDOM         SUNNY     90  54  29 NW9       29.74R
WORTHINGTON      N/A     89  55  31 NW8       29.76S
JACKSON        SUNNY     88  46  23 NW9       29.76R
TRACY          SUNNY     92  49  23 N9        29.74S
SLAYTON        SUNNY     91  46  21 NW13G18   29.77S
$$
MNZ065>067-074>077-082>085-091>093-270100-
   South Central Minnesota

CITY           SKY/WX    TMP DP  RH WIND       PRES   REMARKS
MANKATO        FAIR      92  52  25 N9        29.71S
NEW ULM        SUNNY     91  46  21 NW7       29.71S
ST JAMES       SUNNY     91  45  19 W9        29.73R
FAIRMONT       SUNNY     91  51  25 W9        29.73S
GLENCOE        FAIR      91  55  28 CALM      29.70S
FARIBAULT      FAIR      91  55  29 CALM      29.72S
OWATONNA       FAIR      90  55  31 N9        29.72S
WASECA         FAIR      91  54  27 N10       29.73R
ALBERT LEA     FAIR      90  48  24 CALM      29.72S
$$
MNZ078>079-086>088-094>096-270100-
   Southeast Minnesota

CITY           SKY/WX    TMP DP  RH WIND       PRES   REMARKS
ROCHESTER      FAIR      87  64  46 E3        29.73S
6HR MIN TEMP:  85; 6HR MAX TEMP:  91;

RED WING       FAIR      91  46  21 CALM      29.68S
STANTON        FAIR      89  58  34 N3        29.70R
DODGE CENTER   FAIR      90  52  27 CALM      29.73S
WINONA         FAIR      90  57  33 SW5       29.69S
AUSTIN         FAIR      90  52  27 CALM      29.72S
PRESTON        FAIR      89  55  31 CALM      29.74S
$$
ABBREVIATIONS USED IN REMARKS
   TC - TEMPERATURES IN CELSIUS
  WCI - WIND CHILL INDEX
   HX - HEAT INDEX
  VSB - VISIBILITY
$$




USA.gov is the U.S. government's official web portal to all federal, state and local government web resources and services.